Regional Weather Roundup
Issued by NWS

Home | Current Version | Previous Version | Graphics & Text | Print | Product List | Glossary On
Versions: 1 2 3 4 5 6 7 8 9 10 11 12 13 14 15 16 17 18 19 20 21 22 23 24 25 26 27 28 29 30 31 32 33 34 35 36 37 38 39 40 41 42 43 44 45 46 47 48 49 50
000
ASUS43 KBIS 172110
RWRND

NORTH DAKOTA REGIONAL WEATHER ROUNDUP
NATIONAL WEATHER SERVICE BISMARCK ND
300 PM CST FRI NOV 17 2017

NOTE: "FAIR" INDICATES FEW OR NO CLOUDS BELOW 12,000 FEET WITH NO
SIGNIFICANT WEATHER AND/OR OBSTRUCTIONS TO VISIBILITY.


NDZ001>003-009>011-017-172200-
NORTHWEST NORTH DAKOTA

CITY           SKY/WX    TMP DP  RH WIND       PRES   REMARKS
WILLISTON      SUNNY     35  17  47 CALM      29.66R
MINOT          CLOUDY    27  13  55 CALM      29.68R
MINOT AFB      SUNNY     25  13  59 NW5       29.67R WCI  19
$$

NDZ018>021-031>035-040>046-172200-
SOUTHWEST NORTH DAKOTA

CITY           SKY/WX    TMP DP  RH WIND       PRES   REMARKS
BISMARCK       CLOUDY    36  25  64 CALM      29.70R
DICKINSON      CLOUDY    42  24  49 S6        29.62S
GARRISON         N/A     29  20  69 W5        29.67F
HETTINGER ARPT CLOUDY    43  29  57 SW7       29.66R
$$

NDZ004>008-012>016-024-026-027-054-172200-
NORTHEAST NORTH DAKOTA

CITY           SKY/WX    TMP DP  RH WIND       PRES   REMARKS
GRAND FORKS    CLOUDY    25  17  72 NW13      29.71R WCI  14
GRND FRKS AFB  CLOUDY    23  15  69 NW9       29.71R WCI  13
DEVILS LAKE    CLOUDY    22  16  78 NW6       29.70R WCI  14
$$

NDZ022-023-025-028>030-036>039-047>053-172200-
SOUTHEAST NORTH DAKOTA

CITY           SKY/WX    TMP DP  RH WIND       PRES   REMARKS
FARGO          SUNNY     34  24  67 NW13      29.67R
JAMESTOWN      CLOUDY    27  17  66 NW12      29.69R WCI  17
$$





USA.gov is the U.S. government's official web portal to all federal, state and local government web resources and services.